Powrót do katalogu

CZ-6A DEB

AktywnyPO
NORAD 61088·DEBRIS·🇨🇳 China

Wystrzelony Aug 6, 2024 z Taiyuan Satellite Launch Center

Loading…

Następne Przeloty (najbliższe 24 godziny)

TLE

ŚwieżeSource: Space-Track

Epoka: Sep 14, 2026, 06:51 UTC

1 61088U 24140NE  26257.28608070  .00000619  00000-0  27067-3 0  9998
2 61088  88.9782 262.8030 0036222 241.8464 117.9066 14.22307546106261

Śledź CZ-6A DEB w czasie rzeczywistym z AllMySat

Download on the App Store